| time (UTC) | temp F | wind direction | speed MPH | gust MPH | rain 1hr in | rain 24hr in | rain mn in | humidity % | barometer mb |
| 20260503053414 | 57 | 223 | 8.0 | 10.0 | 0.00 | 0.00 | 0.00 | 59 | 1001.2 |
| 20260503053214 | 57 | 225 | 8.0 | 10.0 | 0.00 | 0.00 | 0.00 | 60 | 1001.2 |
| 20260503053013 | 57 | 223 | 8.0 | 10.0 | 0.00 | 0.00 | 0.00 | 60 | 1001.1 |
| 20260503052813 | 57 | 214 | 7.0 | 9.0 | 0.00 | 0.00 | 0.00 | 59 | 1001.0 |
| 20260503052613 | 57 | 203 | 7.0 | 9.0 | 0.00 | 0.00 | 0.00 | 60 | 1001.1 |
| 20260503052413 | 57 | 202 | 8.0 | 10.0 | 0.00 | 0.00 | 0.00 | 59 | 1001.1 |
| 20260503052213 | 57 | 203 | 8.0 | 11.0 | 0.00 | 0.00 | 0.00 | 60 | 1001.1 |
| 20260503052013 | 57 | 201 | 8.0 | 10.0 | 0.00 | 0.00 | 0.00 | 60 | 1001.0 |
| 20260503051814 | 57 | 202 | 7.0 | 9.0 | 0.00 | 0.00 | 0.00 | 60 | 1001.1 |
| 20260503051613 | 56 | 204 | 6.0 | 8.0 | 0.00 | 0.00 | 0.00 | 60 | 1001.1 |
| 20260503051413 | 56 | 206 | 7.0 | 8.0 | 0.00 | 0.00 | 0.00 | 60 | 1001.1 |
| 20260503051213 | 56 | 207 | 7.0 | 8.0 | 0.00 | 0.00 | 0.00 | 60 | 1001.1 |
| 20260503051013 | 56 | 214 | 5.0 | 7.0 | 0.00 | 0.00 | 0.00 | 60 | 1001.0 |
| 20260503050813 | 56 | 210 | 5.0 | 6.0 | 0.00 | 0.00 | 0.00 | 60 | 1001.0 |
| 20260503050613 | 56 | 215 | 4.0 | 6.0 | 0.00 | 0.00 | 0.00 | 61 | 1001.0 |
| 20260503050413 | 56 | 221 | 4.0 | 5.0 | 0.00 | 0.00 | 0.00 | 61 | 1001.0 |
| 20260503050213 | 55 | 222 | 4.0 | 4.0 | 0.00 | 0.00 | 0.00 | 61 | 1001.0 |
| 20260503050013 | 55 | 222 | 4.0 | 4.0 | 0.00 | 0.00 | 0.00 | 61 | 1001.1 |
| 20260503045812 | 55 | 222 | 4.0 | 6.0 | 0.00 | 0.00 | 0.00 | 61 | 1001.1 |
| 20260503045612 | 55 | 222 | 4.0 | 6.0 | 0.00 | 0.00 | 0.00 | 61 | 1001.0 |
| 20260503045412 | 55 | 221 | 4.0 | 5.0 | 0.00 | 0.00 | 0.00 | 61 | 1001.0 |
| 20260503045212 | 55 | 223 | 3.0 | 5.0 | 0.00 | 0.00 | 0.00 | 61 | 1001.0 |
| 20260503045012 | 54 | 224 | 3.0 | 3.0 | 0.00 | 0.00 | 0.00 | 61 | 1001.0 |
| 20260503044812 | 54 | 225 | 3.0 | 4.0 | 0.00 | 0.00 | 0.00 | 61 | 1001.0 |
| 20260503044612 | 54 | 220 | 3.0 | 4.0 | 0.00 | 0.00 | 0.00 | 61 | 1001.0 |
| 20260503044412 | 54 | 222 | 3.0 | 5.0 | 0.00 | 0.00 | 0.00 | 61 | 1000.9 |
| 20260503044212 | 54 | 224 | 3.0 | 4.0 | 0.00 | 0.00 | 0.00 | 61 | 1000.9 |
| 20260503044012 | 54 | 222 | 3.0 | 4.0 | 0.00 | 0.00 | 0.00 | 61 | 1000.9 |
| 20260503043812 | 53 | 219 | 3.0 | 4.0 | 0.00 | 0.00 | 0.00 | 61 | 1000.9 |
| 20260503043612 | 53 | 218 | 3.0 | 4.0 | 0.00 | 0.00 | 0.00 | 61 | 1000.8 |
| 20260503043412 | 53 | 227 | 3.0 | 4.0 | 0.00 | 0.00 | 0.00 | 61 | 1000.9 |
| 20260503043212 | 53 | 230 | 3.0 | 4.0 | 0.00 | 0.00 | 0.00 | 61 | 1000.9 |
| 20260503043012 | 53 | 225 | 3.0 | 4.0 | 0.00 | 0.00 | 0.00 | 61 | 1000.9 |
| 20260503042811 | 53 | 225 | 3.0 | 4.0 | 0.00 | 0.00 | 0.00 | 61 | 1000.9 |
| 20260503042611 | 53 | 224 | 3.0 | 3.0 | 0.00 | 0.00 | 0.00 | 61 | 1000.9 |
| 20260503042411 | 52 | 222 | 3.0 | 4.0 | 0.00 | 0.00 | 0.00 | 61 | 1000.8 |
| 20260503042211 | 52 | 222 | 3.0 | 4.0 | 0.00 | 0.00 | 0.00 | 61 | 1000.8 |
| 20260503042011 | 52 | 218 | 2.0 | 3.0 | 0.00 | 0.00 | 0.00 | 62 | 1000.8 |
| 20260503041811 | 52 | 214 | 1.0 | 2.0 | 0.00 | 0.00 | 0.00 | 61 | 1000.8 |
| 20260503041611 | 51 | 214 | 1.0 | 2.0 | 0.00 | 0.00 | 0.00 | 61 | 1000.8 |
| 20260503041411 | 51 | 215 | 1.0 | 2.0 | 0.00 | 0.00 | 0.00 | 61 | 1000.9 |
| 20260503041211 | 51 | 215 | 2.0 | 2.0 | 0.00 | 0.00 | 0.00 | 61 | 1000.9 |
| 20260503041011 | 51 | 214 | 2.0 | 2.0 | 0.00 | 0.00 | 0.00 | 61 | 1001.0 |
| 20260503040811 | 51 | 214 | 1.0 | 2.0 | 0.00 | 0.00 | 0.00 | 60 | 1001.0 |
| 20260503040611 | 51 | 214 | 1.0 | 2.0 | 0.00 | 0.00 | 0.00 | 60 | 1001.0 |
| 20260503040411 | 51 | 214 | 1.0 | 2.0 | 0.00 | 0.00 | 0.00 | 60 | 1001.0 |
| 20260503040211 | 51 | 214 | 2.0 | 2.0 | 0.00 | 0.00 | 0.00 | 60 | 1001.0 |
| 20260503040011 | 51 | 214 | 2.0 | 3.0 | 0.00 | 0.00 | 0.00 | 60 | 1001.0 |
| 20260503035811 | 51 | 214 | 2.0 | 2.0 | 0.00 | 0.00 | 0.00 | 60 | 1001.0 |
| 20260503035610 | 52 | 214 | 2.0 | 3.0 | 0.00 | 0.00 | 0.00 | 60 | 1001.0 |
| 20260503035410 | 52 | 209 | 3.0 | 4.0 | 0.00 | 0.00 | 0.00 | 60 | 1000.9 |
| 20260503035210 | 52 | 208 | 3.0 | 4.0 | 0.00 | 0.00 | 0.00 | 60 | 1000.9 |
| 20260503035010 | 52 | 208 | 3.0 | 4.0 | 0.00 | 0.00 | 0.00 | 60 | 1000.8 |
| 20260503034810 | 52 | 208 | 3.0 | 4.0 | 0.00 | 0.00 | 0.00 | 60 | 1000.8 |
| 20260503034610 | 52 | 208 | 4.0 | 4.0 | 0.00 | 0.00 | 0.00 | 60 | 1000.8 |
| 20260503034410 | 52 | 208 | 3.0 | 4.0 | 0.00 | 0.00 | 0.00 | 60 | 1000.8 |
| 20260503034210 | 52 | 208 | 3.0 | 4.0 | 0.00 | 0.00 | 0.00 | 60 | 1000.8 |
| 20260503034010 | 51 | 208 | 3.0 | 4.0 | 0.00 | 0.00 | 0.00 | 61 | 1000.9 |
| 20260503033810 | 51 | 208 | 3.0 | 4.0 | 0.00 | 0.00 | 0.00 | 61 | 1001.0 |
| 20260503033610 | 51 | 209 | 4.0 | 4.0 | 0.00 | 0.00 | 0.00 | 61 | 1001.1 |
| 20260503033410 | 50 | 213 | 3.0 | 4.0 | 0.00 | 0.00 | 0.00 | 61 | 1001.2 |
| 20260503033210 | 50 | 214 | 3.0 | 3.0 | 0.00 | 0.00 | 0.00 | 61 | 1001.3 |
| 20260503033010 | 50 | 214 | 3.0 | 3.0 | 0.00 | 0.00 | 0.00 | 61 | 1001.2 |
| 20260503032810 | 50 | 214 | 3.0 | 3.0 | 0.00 | 0.00 | 0.00 | 61 | 1001.2 |
| 20260503032609 | 50 | 214 | 2.0 | 3.0 | 0.00 | 0.00 | 0.00 | 61 | 1001.2 |
| 20260503032409 | 50 | 214 | 2.0 | 3.0 | 0.00 | 0.00 | 0.00 | 61 | 1001.2 |
| 20260503032209 | 49 | 214 | 2.0 | 3.0 | 0.00 | 0.00 | 0.00 | 62 | 1001.1 |
| 20260503032009 | 49 | 214 | 3.0 | 4.0 | 0.00 | 0.00 | 0.00 | 62 | 1001.1 |
| 20260503031809 | 48 | 214 | 4.0 | 4.0 | 0.00 | 0.00 | 0.00 | 62 | 1001.3 |
| 20260503031610 | 48 | 214 | 3.0 | 4.0 | 0.00 | 0.00 | 0.00 | 62 | 1001.4 |
| 20260503031409 | 47 | 215 | 2.0 | 3.0 | 0.00 | 0.00 | 0.00 | 62 | 1001.4 |
| 20260503031208 | 47 | 219 | 2.0 | 3.0 | 0.00 | 0.00 | 0.00 | 62 | 1001.4 |
| 20260503031001 | 47 | 219 | 3.0 | 3.0 | 0.00 | 0.00 | 0.00 | 63 | 1001.5 |
| 20260503030800 | 46 | 219 | 3.0 | 3.0 | 0.00 | 0.00 | 0.00 | 63 | 1001.6 |
| 20260503030601 | 46 | 219 | 2.0 | 3.0 | 0.00 | 0.00 | 0.00 | 62 | 1001.6 |
| 20260503030400 | 46 | 219 | 1.0 | 2.0 | 0.00 | 0.00 | 0.00 | 63 | 1001.6 |
| 20260503030200 | 46 | 219 | 1.0 | 2.0 | 0.00 | 0.00 | 0.00 | 63 | 1001.6 |
| 20260503030000 | 46 | 219 | 1.0 | 2.0 | 0.00 | 0.00 | 0.00 | 63 | 1001.6 |
| 20260503025800 | 45 | 219 | 0.0 | 1.0 | 0.00 | 0.00 | 0.00 | 62 | 1001.7 |
| 20260503025601 | 45 | 219 | 0.0 | 0.0 | 0.00 | 0.00 | 0.00 | 62 | 1001.7 |
| 20260503025400 | 46 | 219 | 0.0 | 0.0 | 0.00 | 0.00 | 0.00 | 62 | 1001.6 |
| 20260503025200 | 46 | 219 | 0.0 | 0.0 | 0.00 | 0.00 | 0.00 | 62 | 1001.6 |
| 20260503025000 | 46 | 219 | 0.0 | 0.0 | 0.00 | 0.00 | 0.00 | 62 | 1001.6 |
| 20260503024800 | 46 | 219 | 0.0 | 0.0 | 0.00 | 0.00 | 0.00 | 62 | 1001.6 |
| 20260503024600 | 46 | 219 | 0.0 | 0.0 | 0.00 | 0.00 | 0.00 | 62 | 1001.6 |
| 20260503024400 | 46 | 219 | 0.0 | 0.0 | 0.00 | 0.00 | 0.00 | 62 | 1001.6 |
| 20260503024200 | 46 | 219 | 0.0 | 0.0 | 0.00 | 0.00 | 0.00 | 62 | 1001.6 |
| 20260503024000 | 46 | 219 | 0.0 | 0.0 | 0.00 | 0.00 | 0.00 | 62 | 1001.6 |
| 20260503023759 | 46 | 219 | 0.0 | 0.0 | 0.00 | 0.00 | 0.00 | 62 | 1001.7 |
| 20260503023600 | 46 | 219 | 0.0 | 0.0 | 0.00 | 0.00 | 0.00 | 62 | 1001.7 |
| 20260503023359 | 46 | 219 | 0.0 | 0.0 | 0.00 | 0.00 | 0.00 | 62 | 1001.7 |
| 20260503023159 | 46 | 219 | 0.0 | 0.0 | 0.00 | 0.00 | 0.00 | 62 | 1001.7 |
| 20260503022959 | 46 | 219 | 0.0 | 0.0 | 0.00 | 0.00 | 0.00 | 62 | 1001.7 |
| 20260503022759 | 46 | 219 | 0.0 | 0.0 | 0.00 | 0.00 | 0.00 | 62 | 1001.7 |
| 20260503022559 | 46 | 219 | 0.0 | 0.0 | 0.00 | 0.00 | 0.00 | 62 | 1001.8 |
| 20260503022359 | 46 | 219 | 0.0 | 0.0 | 0.00 | 0.00 | 0.00 | 62 | 1001.8 |
| 20260503022159 | 46 | 219 | 0.0 | 0.0 | 0.00 | 0.00 | 0.00 | 62 | 1001.8 |
| 20260503021958 | 46 | 219 | 0.0 | 0.0 | 0.00 | 0.00 | 0.00 | 62 | 1001.8 |
| 20260503021758 | 46 | 219 | 0.0 | 0.0 | 0.00 | 0.00 | 0.00 | 62 | 1001.8 |
| 20260503021559 | 46 | 219 | 0.0 | 0.0 | 0.00 | 0.00 | 0.00 | 62 | 1001.8 |
| 20260503021359 | 46 | 219 | 0.0 | 0.0 | 0.00 | 0.00 | 0.00 | 62 | 1001.8 |
| 20260503021159 | 46 | 219 | 0.0 | 0.0 | 0.00 | 0.00 | 0.00 | 62 | 1001.8 |
| 20260503020959 | 45 | 219 | 0.0 | 0.0 | 0.00 | 0.00 | 0.00 | 62 | 1001.8 |
| 20260503020758 | 45 | 219 | 0.0 | 0.0 | 0.00 | 0.00 | 0.00 | 62 | 1001.8 |
| 20260503020558 | 45 | 219 | 0.0 | 0.0 | 0.00 | 0.00 | 0.00 | 62 | 1001.9 |
| 20260503020358 | 45 | 219 | 0.0 | 0.0 | 0.00 | 0.00 | 0.00 | 62 | 1001.9 |
| 20260503020158 | 45 | 219 | 0.0 | 0.0 | 0.00 | 0.00 | 0.00 | 62 | 1001.9 |
| 20260503015958 | 45 | 219 | 0.0 | 0.0 | 0.00 | 0.00 | 0.00 | 62 | 1001.9 |
| 20260503015758 | 45 | 219 | 0.0 | 0.0 | 0.00 | 0.00 | 0.00 | 62 | 1001.9 |
| 20260503015558 | 45 | 219 | 0.0 | 0.0 | 0.00 | 0.00 | 0.00 | 62 | 1001.9 |
| 20260503015358 | 45 | 219 | 0.0 | 0.0 | 0.00 | 0.00 | 0.00 | 62 | 1001.9 |
| 20260503015158 | 45 | 219 | 0.0 | 0.0 | 0.00 | 0.00 | 0.00 | 62 | 1001.9 |
| 20260503014958 | 45 | 219 | 0.0 | 0.0 | 0.00 | 0.00 | 0.00 | 62 | 1001.8 |
| 20260503014758 | 45 | 219 | 0.0 | 0.0 | 0.00 | 0.00 | 0.00 | 62 | 1001.9 |
| 20260503014558 | 45 | 219 | 0.0 | 0.0 | 0.00 | 0.00 | 0.00 | 62 | 1001.8 |
| 20260503014358 | 45 | 219 | 0.0 | 0.0 | 0.00 | 0.00 | 0.00 | 62 | 1001.8 |
| 20260503014158 | 45 | 219 | 0.0 | 0.0 | 0.00 | 0.00 | 0.00 | 62 | 1001.8 |
| 20260503013958 | 45 | 219 | 0.0 | 0.0 | 0.00 | 0.00 | 0.00 | 62 | 1001.8 |
| 20260503013758 | 45 | 219 | 0.0 | 0.0 | 0.00 | 0.00 | 0.00 | 62 | 1001.8 |
| 20260503013558 | 44 | 219 | 0.0 | 0.0 | 0.00 | 0.00 | 0.00 | 62 | 1001.8 |
| 20260503013358 | 44 | 219 | 0.0 | 0.0 | 0.00 | 0.00 | 0.00 | 62 | 1001.8 |
| 20260503013158 | 45 | 219 | 0.0 | 0.0 | 0.00 | 0.00 | 0.00 | 62 | 1001.9 |
| 20260503012958 | 45 | 219 | 0.0 | 0.0 | 0.00 | 0.00 | 0.00 | 62 | 1001.9 |
| 20260503012757 | 45 | 219 | 0.0 | 0.0 | 0.00 | 0.00 | 0.00 | 62 | 1001.9 |
| 20260503012600 | 45 | 219 | 0.0 | 0.0 | 0.00 | 0.00 | 0.00 | 61 | 1001.9 |
| 20260503012358 | 45 | 219 | 0.0 | 0.0 | 0.00 | 0.00 | 0.00 | 61 | 1001.9 |
| 20260503012157 | 46 | 219 | 0.0 | 0.0 | 0.00 | 0.00 | 0.00 | 61 | 1001.9 |
| 20260503011957 | 46 | 219 | 0.0 | 0.0 | 0.00 | 0.00 | 0.00 | 61 | 1001.8 |
| 20260503011757 | 46 | 219 | 0.0 | 0.0 | 0.00 | 0.00 | 0.00 | 61 | 1001.8 |
| 20260503011557 | 46 | 219 | 0.0 | 0.0 | 0.00 | 0.00 | 0.00 | 61 | 1001.8 |
| 20260503011357 | 46 | 219 | 0.0 | 0.0 | 0.00 | 0.00 | 0.00 | 61 | 1001.8 |
| 20260503011157 | 46 | 219 | 0.0 | 0.0 | 0.00 | 0.00 | 0.00 | 61 | 1001.8 |
| 20260503010957 | 46 | 219 | 0.0 | 0.0 | 0.00 | 0.00 | 0.00 | 61 | 1001.8 |
| 20260503010757 | 46 | 219 | 0.0 | 0.0 | 0.00 | 0.00 | 0.00 | 61 | 1001.8 |
| 20260503010557 | 46 | 219 | 0.0 | 0.0 | 0.00 | 0.00 | 0.00 | 61 | 1001.8 |
| 20260503010357 | 46 | 219 | 0.0 | 0.0 | 0.00 | 0.00 | 0.00 | 61 | 1001.7 |
| 20260503010157 | 46 | 219 | 0.0 | 0.0 | 0.00 | 0.00 | 0.00 | 61 | 1001.7 |
| 20260503005957 | 46 | 219 | 0.0 | 0.0 | 0.00 | 0.00 | 0.00 | 61 | 1001.8 |
| 20260503005757 | 45 | 219 | 0.0 | 1.0 | 0.00 | 0.00 | 0.00 | 61 | 1001.8 |
| 20260503005557 | 45 | 219 | 0.0 | 1.0 | 0.00 | 0.00 | 0.00 | 61 | 1001.8 |
| 20260503005357 | 45 | 219 | 1.0 | 1.0 | 0.00 | 0.00 | 0.00 | 61 | 1001.9 |
| 20260503005157 | 45 | 219 | 1.0 | 1.0 | 0.00 | 0.00 | 0.00 | 61 | 1001.9 |
| 20260503004956 | 45 | 219 | 1.0 | 1.0 | 0.00 | 0.00 | 0.00 | 60 | 1001.9 |
| 20260503004756 | 45 | 219 | 1.0 | 1.0 | 0.00 | 0.00 | 0.00 | 60 | 1001.9 |
| 20260503004556 | 45 | 219 | 0.0 | 1.0 | 0.00 | 0.00 | 0.00 | 60 | 1001.9 |
| 20260503004356 | 46 | 219 | 0.0 | 0.0 | 0.00 | 0.00 | 0.00 | 60 | 1001.9 |
| 20260503004156 | 46 | 219 | 0.0 | 0.0 | 0.00 | 0.00 | 0.00 | 60 | 1001.8 |
| 20260503003956 | 46 | 219 | 0.0 | 1.0 | 0.00 | 0.00 | 0.00 | 60 | 1001.8 |
| 20260503003805 | 46 | 221 | 1.0 | 1.0 | 0.00 | 0.00 | 0.00 | 60 | 1001.8 |
| 20260503003351 | 47 | 219 | 1.0 | 1.0 | 0.00 | 0.00 | 0.00 | 60 | 1001.8 |
| 20260503003151 | 47 | 219 | 0.0 | 1.0 | 0.00 | 0.00 | 0.00 | 60 | 1001.8 |
| 20260503002951 | 47 | 219 | 0.0 | 1.0 | 0.00 | 0.00 | 0.00 | 60 | 1001.8 |
| 20260503002751 | 47 | 219 | 1.0 | 1.0 | 0.00 | 0.00 | 0.00 | 60 | 1001.8 |
| 20260503002551 | 47 | 219 | 1.0 | 1.0 | 0.00 | 0.00 | 0.00 | 59 | 1001.8 |
| 20260503002351 | 47 | 219 | 1.0 | 2.0 | 0.00 | 0.00 | 0.00 | 59 | 1001.8 |
| 20260503002151 | 47 | 219 | 0.0 | 0.0 | 0.00 | 0.00 | 0.00 | 59 | 1001.8 |
| 20260503001950 | 47 | 219 | 0.0 | 0.0 | 0.00 | 0.00 | 0.00 | 59 | 1001.8 |
| 20260503001750 | 47 | 219 | 0.0 | 0.0 | 0.00 | 0.00 | 0.00 | 59 | 1001.8 |
| 20260503001550 | 47 | 219 | 0.0 | 0.0 | 0.00 | 0.00 | 0.00 | 59 | 1001.8 |
| 20260503001350 | 47 | 219 | 0.0 | 0.0 | 0.00 | 0.00 | 0.00 | 59 | 1001.8 |
| 20260503001150 | 47 | 219 | 0.0 | 0.0 | 0.00 | 0.00 | 0.00 | 59 | 1001.8 |
| 20260503000950 | 47 | 219 | 0.0 | 0.0 | 0.00 | 0.00 | 0.00 | 59 | 1001.8 |
| 20260503000750 | 47 | 219 | 0.0 | 0.0 | 0.00 | 0.00 | 0.00 | 59 | 1001.8 |
| 20260503000550 | 47 | 219 | 0.0 | 0.0 | 0.00 | 0.00 | 0.00 | 59 | 1001.8 |
| 20260503000350 | 47 | 219 | 0.0 | 0.0 | 0.00 | 0.00 | 0.00 | 59 | 1001.8 |
| 20260503000153 | 48 | 219 | 0.0 | 0.0 | 0.00 | 0.00 | 0.00 | 58 | 1001.9 |
| 20260502235950 | 48 | 219 | 0.0 | 0.0 | 0.00 | 0.00 | 0.00 | 58 | 1001.8 |
| 20260502235750 | 48 | 219 | 0.0 | 0.0 | 0.00 | 0.00 | 0.00 | 58 | 1001.8 |
| 20260502235550 | 48 | 219 | 0.0 | 0.0 | 0.00 | 0.00 | 0.00 | 58 | 1001.8 |
| 20260502235350 | 48 | 219 | 0.0 | 0.0 | 0.00 | 0.00 | 0.00 | 58 | 1001.8 |
| 20260502235150 | 48 | 219 | 0.0 | 0.0 | 0.00 | 0.00 | 0.00 | 58 | 1001.9 |
| 20260502234950 | 48 | 219 | 0.0 | 0.0 | 0.00 | 0.00 | 0.00 | 59 | 1001.9 |
| 20260502234749 | 48 | 219 | 0.0 | 0.0 | 0.00 | 0.00 | 0.00 | 58 | 1001.9 |
| 20260502234549 | 48 | 219 | 0.0 | 0.0 | 0.00 | 0.00 | 0.00 | 58 | 1001.9 |
| 20260502234349 | 47 | 219 | 0.0 | 0.0 | 0.00 | 0.00 | 0.00 | 58 | 1001.8 |
| 20260502234149 | 47 | 219 | 0.0 | 0.0 | 0.00 | 0.00 | 0.00 | 58 | 1001.8 |
| 20260502233949 | 47 | 219 | 0.0 | 0.0 | 0.00 | 0.00 | 0.00 | 58 | 1001.8 |
| 20260502233749 | 48 | 219 | 0.0 | 0.0 | 0.00 | 0.00 | 0.00 | 58 | 1001.9 |
| 20260502233549 | 48 | 219 | 0.0 | 0.0 | 0.00 | 0.00 | 0.00 | 57 | 1001.9 |
| 20260502233349 | 48 | 219 | 0.0 | 0.0 | 0.00 | 0.00 | 0.00 | 57 | 1001.9 |
| 20260502233149 | 49 | 219 | 0.0 | 0.0 | 0.00 | 0.00 | 0.00 | 57 | 1001.8 |
| 20260502232950 | 49 | 219 | 0.0 | 0.0 | 0.00 | 0.00 | 0.00 | 57 | 1001.8 |
| 20260502232749 | 49 | 219 | 0.0 | 0.0 | 0.00 | 0.00 | 0.00 | 56 | 1001.8 |
| 20260502232549 | 49 | 219 | 0.0 | 0.0 | 0.00 | 0.00 | 0.00 | 56 | 1001.8 |
| 20260502232349 | 50 | 219 | 0.0 | 0.0 | 0.00 | 0.00 | 0.00 | 56 | 1001.8 |
| 20260502232149 | 50 | 219 | 0.0 | 0.0 | 0.00 | 0.00 | 0.00 | 56 | 1001.8 |
| 20260502231949 | 50 | 219 | 0.0 | 0.0 | 0.00 | 0.00 | 0.00 | 56 | 1001.8 |
| 20260502231748 | 50 | 219 | 0.0 | 0.0 | 0.00 | 0.00 | 0.00 | 56 | 1001.8 |
| 20260502231548 | 50 | 219 | 0.0 | 0.0 | 0.00 | 0.00 | 0.00 | 56 | 1001.8 |
| 20260502231348 | 50 | 219 | 0.0 | 0.0 | 0.00 | 0.00 | 0.00 | 55 | 1001.8 |
| 20260502231148 | 50 | 219 | 0.0 | 0.0 | 0.00 | 0.00 | 0.00 | 55 | 1001.8 |
| 20260502230948 | 51 | 219 | 0.0 | 0.0 | 0.00 | 0.00 | 0.00 | 55 | 1001.8 |
| 20260502230748 | 51 | 219 | 0.0 | 0.0 | 0.00 | 0.00 | 0.00 | 55 | 1001.8 |
| 20260502230548 | 52 | 219 | 0.0 | 0.0 | 0.00 | 0.00 | 0.00 | 55 | 1001.9 |
| 20260502230348 | 53 | 219 | 0.0 | 0.0 | 0.00 | 0.00 | 0.00 | 55 | 1001.8 |
| 20260502230148 | 53 | 219 | 0.0 | 0.0 | 0.00 | 0.00 | 0.00 | 55 | 1001.8 |
| 20260502225948 | 54 | 219 | 0.0 | 0.0 | 0.00 | 0.00 | 0.00 | 55 | 1001.8 |
| 20260502225748 | 54 | 219 | 0.0 | 0.0 | 0.00 | 0.00 | 0.00 | 54 | 1001.7 |
| 20260502225548 | 54 | 219 | 0.0 | 1.0 | 0.00 | 0.00 | 0.00 | 54 | 1001.7 |
| 20260502225348 | 55 | 219 | 1.0 | 1.0 | 0.00 | 0.00 | 0.00 | 54 | 1001.7 |
| 20260502225148 | 55 | 219 | 1.0 | 1.0 | 0.00 | 0.00 | 0.00 | 54 | 1001.7 |
| 20260502224948 | 54 | 219 | 1.0 | 1.0 | 0.00 | 0.00 | 0.00 | 55 | 1001.7 |
| 20260502224748 | 54 | 219 | 1.0 | 1.0 | 0.00 | 0.00 | 0.00 | 54 | 1001.7 |
| 20260502224547 | 54 | 219 | 1.0 | 1.0 | 0.00 | 0.00 | 0.00 | 54 | 1001.7 |
| 20260502224347 | 54 | 219 | 1.0 | 1.0 | 0.00 | 0.00 | 0.00 | 54 | 1001.7 |
| 20260502224147 | 54 | 219 | 1.0 | 1.0 | 0.00 | 0.00 | 0.00 | 54 | 1001.8 |
| 20260502223947 | 54 | 219 | 1.0 | 1.0 | 0.00 | 0.00 | 0.00 | 54 | 1001.8 |
| 20260502223747 | 55 | 219 | 1.0 | 1.0 | 0.00 | 0.00 | 0.00 | 54 | 1001.7 |
| 20260502223547 | 55 | 219 | 1.0 | 2.0 | 0.00 | 0.00 | 0.00 | 54 | 1001.7 |
| 20260502223347 | 55 | 219 | 2.0 | 2.0 | 0.00 | 0.00 | 0.00 | 54 | 1001.7 |
| 20260502223147 | 56 | 219 | 2.0 | 2.0 | 0.00 | 0.00 | 0.00 | 54 | 1001.6 |
| 20260502222947 | 56 | 219 | 2.0 | 2.0 | 0.00 | 0.00 | 0.00 | 54 | 1001.6 |
| 20260502222747 | 56 | 219 | 2.0 | 2.0 | 0.00 | 0.00 | 0.00 | 54 | 1001.6 |
| 20260502222547 | 56 | 219 | 2.0 | 2.0 | 0.00 | 0.00 | 0.00 | 54 | 1001.6 |
| 20260502222347 | 56 | 219 | 2.0 | 2.0 | 0.00 | 0.00 | 0.00 | 54 | 1001.7 |
| 20260502222147 | 56 | 219 | 2.0 | 2.0 | 0.00 | 0.00 | 0.00 | 54 | 1001.7 |
| 20260502221947 | 56 | 219 | 2.0 | 2.0 | 0.00 | 0.00 | 0.00 | 54 | 1001.7 |
| 20260502221747 | 56 | 219 | 2.0 | 2.0 | 0.00 | 0.00 | 0.00 | 54 | 1001.8 |
| 20260502221546 | 56 | 219 | 2.0 | 2.0 | 0.00 | 0.00 | 0.00 | 54 | 1001.8 |
| 20260502221346 | 56 | 219 | 2.0 | 2.0 | 0.00 | 0.00 | 0.00 | 54 | 1001.8 |
| 20260502221146 | 55 | 219 | 2.0 | 2.0 | 0.00 | 0.00 | 0.00 | 54 | 1001.8 |
| 20260502220946 | 55 | 219 | 2.0 | 2.0 | 0.00 | 0.00 | 0.00 | 55 | 1001.8 |
| 20260502220746 | 54 | 219 | 2.0 | 2.0 | 0.00 | 0.00 | 0.00 | 55 | 1001.9 |
| 20260502220546 | 54 | 219 | 2.0 | 2.0 | 0.00 | 0.00 | 0.00 | 55 | 1001.9 |
| 20260502220346 | 54 | 219 | 2.0 | 2.0 | 0.00 | 0.00 | 0.00 | 55 | 1002.0 |
| 20260502220146 | 54 | 219 | 2.0 | 2.0 | 0.00 | 0.00 | 0.00 | 55 | 1002.0 |
| 20260502215938 | 54 | 219 | 2.0 | 2.0 | 0.00 | 0.00 | 0.00 | 55 | 1002.0 |
| 20260502215738 | 55 | 219 | 2.0 | 2.0 | 0.00 | 0.00 | 0.00 | 55 | 1002.0 |
| 20260502215538 | 55 | 219 | 2.0 | 2.0 | 0.00 | 0.00 | 0.00 | 55 | 1002.0 |
| 20260502215338 | 54 | 219 | 2.0 | 3.0 | 0.00 | 0.00 | 0.00 | 55 | 1001.9 |
| 20260502215137 | 54 | 219 | 2.0 | 2.0 | 0.00 | 0.00 | 0.00 | 55 | 1001.9 |
| 20260502214938 | 53 | 219 | 2.0 | 2.0 | 0.00 | 0.00 | 0.00 | 56 | 1001.9 |
| 20260502214737 | 53 | 219 | 2.0 | 2.0 | 0.00 | 0.00 | 0.00 | 56 | 1002.0 |
| 20260502214537 | 53 | 219 | 1.0 | 2.0 | 0.00 | 0.00 | 0.00 | 56 | 1002.0 |
| 20260502214337 | 52 | 219 | 0.0 | 1.0 | 0.00 | 0.00 | 0.00 | 55 | 1002.0 |
| 20260502214137 | 52 | 219 | 0.0 | 0.0 | 0.00 | 0.00 | 0.00 | 56 | 1002.0 |
| 20260502213937 | 52 | 219 | 0.0 | 0.0 | 0.00 | 0.00 | 0.00 | 56 | 1002.0 |
| 20260502213737 | 52 | 219 | 0.0 | 0.0 | 0.00 | 0.00 | 0.00 | 55 | 1002.0 |
| 20260502213537 | 52 | 219 | 0.0 | 0.0 | 0.00 | 0.00 | 0.00 | 56 | 1002.0 |
| 20260502213337 | 52 | 219 | 0.0 | 0.0 | 0.00 | 0.00 | 0.00 | 55 | 1002.0 |
| 20260502213137 | 52 | 219 | 0.0 | 0.0 | 0.00 | 0.00 | 0.00 | 55 | 1002.0 |
| 20260502212938 | 52 | 219 | 0.0 | 0.0 | 0.00 | 0.00 | 0.00 | 55 | 1002.0 |
| 20260502212737 | 52 | 219 | 0.0 | 0.0 | 0.00 | 0.00 | 0.00 | 55 | 1002.1 |
| 20260502212537 | 53 | 219 | 0.0 | 0.0 | 0.00 | 0.00 | 0.00 | 55 | 1002.0 |
| 20260502212337 | 53 | 219 | 0.0 | 0.0 | 0.00 | 0.00 | 0.00 | 55 | 1002.0 |
| 20260502212137 | 53 | 219 | 0.0 | 0.0 | 0.00 | 0.00 | 0.00 | 55 | 1002.0 |
| 20260502211937 | 53 | 219 | 0.0 | 0.0 | 0.00 | 0.00 | 0.00 | 55 | 1002.1 |
| 20260502211737 | 53 | 219 | 0.0 | 0.0 | 0.00 | 0.00 | 0.00 | 55 | 1002.0 |
| 20260502211536 | 53 | 219 | 0.0 | 0.0 | 0.00 | 0.00 | 0.00 | 56 | 1002.0 |
| 20260502211336 | 52 | 219 | 0.0 | 0.0 | 0.00 | 0.00 | 0.00 | 55 | 1002.0 |
| 20260502211136 | 52 | 219 | 0.0 | 0.0 | 0.00 | 0.00 | 0.00 | 55 | 1002.0 |
| 20260502210936 | 52 | 219 | 0.0 | 0.0 | 0.00 | 0.00 | 0.00 | 55 | 1002.0 |
| 20260502210737 | 52 | 219 | 0.0 | 0.0 | 0.00 | 0.00 | 0.00 | 55 | 1002.0 |
| 20260502210536 | 52 | 219 | 0.0 | 0.0 | 0.00 | 0.00 | 0.00 | 55 | 1002.0 |
| 20260502210336 | 52 | 219 | 0.0 | 0.0 | 0.00 | 0.00 | 0.00 | 55 | 1002.0 |
| 20260502210136 | 52 | 219 | 0.0 | 0.0 | 0.00 | 0.00 | 0.00 | 55 | 1002.1 |
| 20260502205936 | 52 | 219 | 0.0 | 0.0 | 0.00 | 0.00 | 0.00 | 55 | 1002.1 |
| 20260502205736 | 52 | 219 | 0.0 | 0.0 | 0.00 | 0.00 | 0.00 | 55 | 1002.1 |
| 20260502205536 | 52 | 219 | 0.0 | 0.0 | 0.00 | 0.00 | 0.00 | 55 | 1002.1 |
| 20260502205336 | 52 | 219 | 0.0 | 0.0 | 0.00 | 0.00 | 0.00 | 55 | 1002.1 |
| 20260502205136 | 52 | 219 | 0.0 | 0.0 | 0.00 | 0.00 | 0.00 | 55 | 1002.1 |
| 20260502204936 | 52 | 219 | 0.0 | 0.0 | 0.00 | 0.00 | 0.00 | 55 | 1002.1 |
| 20260502204736 | 52 | 219 | 0.0 | 1.0 | 0.00 | 0.00 | 0.00 | 55 | 1002.1 |
| 20260502204535 | 52 | 219 | 1.0 | 1.0 | 0.00 | 0.00 | 0.00 | 55 | 1002.1 |
| 20260502204335 | 51 | 219 | 1.0 | 1.0 | 0.00 | 0.00 | 0.00 | 55 | 1002.1 |
| 20260502204135 | 51 | 219 | 1.0 | 1.0 | 0.00 | 0.00 | 0.00 | 55 | 1002.1 |
| 20260502203935 | 51 | 219 | 0.0 | 1.0 | 0.00 | 0.00 | 0.00 | 55 | 1002.1 |
| 20260502203735 | 51 | 219 | 0.0 | 0.0 | 0.00 | 0.00 | 0.00 | 55 | 1002.1 |
| 20260502203535 | 51 | 219 | 0.0 | 0.0 | 0.00 | 0.00 | 0.00 | 55 | 1002.1 |
| 20260502203335 | 52 | 219 | 0.0 | 0.0 | 0.00 | 0.00 | 0.00 | 55 | 1002.1 |
| 20260502203135 | 52 | 219 | 0.0 | 0.0 | 0.00 | 0.00 | 0.00 | 55 | 1002.2 |
| 20260502202935 | 52 | 219 | 0.0 | 0.0 | 0.00 | 0.00 | 0.00 | 55 | 1002.1 |
| 20260502202735 | 52 | 219 | 0.0 | 0.0 | 0.00 | 0.00 | 0.00 | 55 | 1002.0 |
| 20260502202535 | 53 | 219 | 0.0 | 0.0 | 0.00 | 0.00 | 0.00 | 55 | 1002.0 |
| 20260502202335 | 53 | 219 | 0.0 | 0.0 | 0.00 | 0.00 | 0.00 | 54 | 1002.0 |
| 20260502202135 | 53 | 219 | 0.0 | 0.0 | 0.00 | 0.00 | 0.00 | 54 | 1002.0 |
| 20260502201936 | 53 | 219 | 0.0 | 0.0 | 0.00 | 0.00 | 0.00 | 54 | 1002.0 |
| 20260502201735 | 53 | 219 | 0.0 | 0.0 | 0.00 | 0.00 | 0.00 | 54 | 1002.0 |
| 20260502201535 | 53 | 219 | 0.0 | 0.0 | 0.00 | 0.00 | 0.00 | 54 | 1002.1 |
| 20260502201334 | 53 | 219 | 0.0 | 0.0 | 0.00 | 0.00 | 0.00 | 54 | 1002.1 |
| 20260502201134 | 54 | 219 | 0.0 | 0.0 | 0.00 | 0.00 | 0.00 | 54 | 1002.1 |
| 20260502200934 | 54 | 219 | 0.0 | 0.0 | 0.00 | 0.00 | 0.00 | 54 | 1002.1 |
| 20260502200734 | 53 | 219 | 0.0 | 0.0 | 0.00 | 0.00 | 0.00 | 54 | 1002.0 |
| 20260502200534 | 53 | 219 | 0.0 | 1.0 | 0.00 | 0.00 | 0.00 | 54 | 1002.0 |
| 20260502200334 | 54 | 219 | 1.0 | 1.0 | 0.00 | 0.00 | 0.00 | 54 | 1002.0 |
| 20260502200136 | 54 | 219 | 1.0 | 1.0 | 0.00 | 0.00 | 0.00 | 53 | 1002.0 |
| 20260502195933 | 54 | 219 | 1.0 | 2.0 | 0.00 | 0.00 | 0.00 | 54 | 1002.0 |
| 20260502195734 | 54 | 219 | 1.0 | 2.0 | 0.00 | 0.00 | 0.00 | 53 | 1002.1 |
| 20260502195534 | 54 | 219 | 0.0 | 1.0 | 0.00 | 0.00 | 0.00 | 53 | 1002.1 |
| 20260502195334 | 53 | 219 | 0.0 | 1.0 | 0.00 | 0.00 | 0.00 | 53 | 1002.1 |
| 20260502195134 | 53 | 219 | 1.0 | 1.0 | 0.00 | 0.00 | 0.00 | 53 | 1002.1 |
| 20260502194934 | 54 | 219 | 0.0 | 1.0 | 0.00 | 0.00 | 0.00 | 53 | 1002.1 |
| 20260502194734 | 54 | 221 | 1.0 | 1.0 | 0.00 | 0.00 | 0.00 | 53 | 1002.1 |
| 20260502194534 | 54 | 221 | 1.0 | 1.0 | 0.00 | 0.00 | 0.00 | 53 | 1002.1 |
| 20260502194333 | 55 | 220 | 1.0 | 1.0 | 0.00 | 0.00 | 0.00 | 53 | 1002.1 |
| 20260502194133 | 55 | 219 | 1.0 | 1.0 | 0.00 | 0.00 | 0.00 | 52 | 1002.1 |
| 20260502193933 | 56 | 221 | 1.0 | 1.0 | 0.00 | 0.00 | 0.00 | 52 | 1002.1 |
| 20260502193733 | 56 | 221 | 1.0 | 1.0 | 0.00 | 0.00 | 0.00 | 52 | 1002.1 |
| 20260502193533 | 57 | 220 | 1.0 | 1.0 | 0.00 | 0.00 | 0.00 | 52 | 1002.1 |
| 20260502193333 | 57 | 219 | 1.0 | 1.0 | 0.00 | 0.00 | 0.00 | 52 | 1002.0 |
| 20260502193133 | 58 | 219 | 1.0 | 1.0 | 0.00 | 0.00 | 0.00 | 52 | 1002.0 |
| 20260502192933 | 57 | 219 | 1.0 | 2.0 | 0.00 | 0.00 | 0.00 | 52 | 1002.1 |
| 20260502192733 | 57 | 219 | 1.0 | 2.0 | 0.00 | 0.00 | 0.00 | 52 | 1002.1 |
| 20260502192324 | 57 | 219 | 1.0 | 1.0 | 0.00 | 0.00 | 0.00 | 51 | 1002.1 |
| 20260502192124 | 57 | 220 | 1.0 | 1.0 | 0.00 | 0.00 | 0.00 | 51 | 1002.2 |
| 20260502191924 | 57 | 220 | 1.0 | 1.0 | 0.00 | 0.00 | 0.00 | 51 | 1002.2 |
| 20260502191724 | 57 | 219 | 1.0 | 1.0 | 0.00 | 0.00 | 0.00 | 51 | 1002.2 |
| 20260502191524 | 57 | 219 | 0.0 | 1.0 | 0.00 | 0.00 | 0.00 | 50 | 1002.2 |
| 20260502191324 | 57 | 219 | 1.0 | 1.0 | 0.00 | 0.00 | 0.00 | 50 | 1002.2 |
| 20260502191124 | 57 | 219 | 1.0 | 2.0 | 0.00 | 0.00 | 0.00 | 50 | 1002.3 |
| 20260502190923 | 58 | 219 | 2.0 | 2.0 | 0.00 | 0.00 | 0.00 | 50 | 1002.3 |
| 20260502190723 | 58 | 219 | 2.0 | 2.0 | 0.00 | 0.00 | 0.00 | 50 | 1002.3 |
| 20260502190523 | 59 | 219 | 2.0 | 2.0 | 0.00 | 0.00 | 0.00 | 49 | 1002.3 |
| 20260502190323 | 59 | 219 | 2.0 | 2.0 | 0.00 | 0.00 | 0.00 | 49 | 1002.2 |
| 20260502190123 | 59 | 219 | 2.0 | 2.0 | 0.00 | 0.00 | 0.00 | 49 | 1002.2 |
| 20260502185923 | 60 | 219 | 2.0 | 2.0 | 0.00 | 0.00 | 0.00 | 49 | 1002.2 |
| 20260502185723 | 60 | 219 | 2.0 | 2.0 | 0.00 | 0.00 | 0.00 | 48 | 1002.2 |
| 20260502185523 | 61 | 219 | 2.0 | 2.0 | 0.00 | 0.00 | 0.00 | 48 | 1002.1 |
| 20260502185323 | 61 | 219 | 1.0 | 2.0 | 0.00 | 0.00 | 0.00 | 48 | 1002.2 |
| 20260502185123 | 62 | 219 | 0.0 | 0.0 | 0.00 | 0.00 | 0.00 | 48 | 1002.2 |
| 20260502184923 | 62 | 219 | 0.0 | 0.0 | 0.00 | 0.00 | 0.00 | 48 | 1002.1 |
| 20260502184723 | 62 | 219 | 0.0 | 0.0 | 0.00 | 0.00 | 0.00 | 48 | 1002.1 |
| 20260502184523 | 63 | 219 | 0.0 | 1.0 | 0.00 | 0.00 | 0.00 | 48 | 1002.1 |
| 20260502184323 | 63 | 219 | 0.0 | 1.0 | 0.00 | 0.00 | 0.00 | 48 | 1002.1 |
| 20260502184123 | 63 | 219 | 1.0 | 1.0 | 0.00 | 0.00 | 0.00 | 48 | 1002.1 |
| 20260502183923 | 63 | 219 | 1.0 | 2.0 | 0.00 | 0.00 | 0.00 | 47 | 1002.1 |
| 20260502183722 | 63 | 219 | 1.0 | 2.0 | 0.00 | 0.00 | 0.00 | 47 | 1002.1 |
| 20260502183522 | 63 | 216 | 2.0 | 2.0 | 0.00 | 0.00 | 0.00 | 47 | 1002.1 |
| 20260502183322 | 63 | 214 | 2.0 | 3.0 | 0.00 | 0.00 | 0.00 | 47 | 1002.1 |
| 20260502183122 | 63 | 214 | 2.0 | 3.0 | 0.00 | 0.00 | 0.00 | 47 | 1002.1 |
| 20260502182922 | 64 | 214 | 2.0 | 2.0 | 0.00 | 0.00 | 0.00 | 47 | 1002.2 |
| 20260502182722 | 65 | 214 | 2.0 | 2.0 | 0.00 | 0.00 | 0.00 | 47 | 1002.2 |
| 20260502182522 | 66 | 207 | 2.0 | 3.0 | 0.00 | 0.00 | 0.00 | 46 | 1002.0 |
| 20260502182322 | 66 | 190 | 4.0 | 4.0 | 0.00 | 0.00 | 0.00 | 46 | 1002.0 |
| 20260502182122 | 67 | 186 | 4.0 | 5.0 | 0.00 | 0.00 | 0.00 | 46 | 1001.9 |
| 20260502181922 | 67 | 185 | 5.0 | 5.0 | 0.00 | 0.00 | 0.00 | 46 | 1001.9 |
| 20260502181722 | 68 | 185 | 5.0 | 6.0 | 0.00 | 0.00 | 0.00 | 45 | 1001.8 |
| 20260502181522 | 68 | 185 | 5.0 | 5.0 | 0.00 | 0.00 | 0.00 | 45 | 1001.8 |
| 20260502181322 | 68 | 185 | 5.0 | 6.0 | 0.00 | 0.00 | 0.00 | 45 | 1001.9 |
| 20260502181122 | 68 | 186 | 5.0 | 6.0 | 0.00 | 0.00 | 0.00 | 45 | 1001.9 |
| 20260502180922 | 69 | 185 | 5.0 | 6.0 | 0.00 | 0.00 | 0.00 | 45 | 1001.9 |
| 20260502180721 | 69 | 185 | 5.0 | 6.0 | 0.00 | 0.00 | 0.00 | 45 | 1001.9 |
| 20260502180521 | 69 | 181 | 6.0 | 6.0 | 0.00 | 0.00 | 0.00 | 44 | 1001.9 |
| 20260502180322 | 70 | 174 | 6.0 | 6.0 | 0.00 | 0.00 | 0.00 | 44 | 1001.9 |
| 20260502180122 | 70 | 170 | 5.0 | 6.0 | 0.00 | 0.00 | 0.00 | 44 | 1001.9 |
| 20260502170519 | 73 | 261 | 2.0 | 3.0 | 0.00 | 0.00 | 0.00 | 43 | 1001.8 |
| 20260502170318 | 73 | 261 | 2.0 | 3.0 | 0.00 | 0.00 | 0.00 | 42 | 1001.8 |
| 20260502170119 | 73 | 261 | 2.0 | 3.0 | 0.00 | 0.00 | 0.00 | 43 | 1001.7 |
| 20260502164311 | 73 | 280 | 2.0 | 4.0 | 0.00 | 0.00 | 0.00 | 43 | 1001.8 |
| 20260502164111 | 73 | 277 | 2.0 | 3.0 | 0.00 | 0.00 | 0.00 | 43 | 1001.8 |
| 20260502163911 | 74 | 275 | 2.0 | 3.0 | 0.00 | 0.00 | 0.00 | 43 | 1001.8 |
| 20260502163711 | 74 | 295 | 4.0 | 6.0 | 0.00 | 0.00 | 0.00 | 43 | 1001.8 |
| 20260502163511 | 74 | 297 | 4.0 | 6.0 | 0.00 | 0.00 | 0.00 | 43 | 1001.8 |
| 20260502163310 | 74 | 283 | 2.0 | 4.0 | 0.00 | 0.00 | 0.00 | 43 | 1001.8 |
| 20260502163110 | 74 | 284 | 2.0 | 3.0 | 0.00 | 0.00 | 0.00 | 43 | 1001.9 |
| 20260502162910 | 74 | 297 | 3.0 | 4.0 | 0.00 | 0.00 | 0.00 | 43 | 1001.9 |
| 20260502162710 | 74 | 285 | 4.0 | 8.0 | 0.00 | 0.00 | 0.00 | 43 | 1001.9 |
| 20260502162510 | 74 | 274 | 5.0 | 8.0 | 0.00 | 0.00 | 0.00 | 43 | 1001.9 |
| 20260502162310 | 74 | 293 | 5.0 | 7.0 | 0.00 | 0.00 | 0.00 | 43 | 1001.9 |
| 20260502162110 | 74 | 291 | 4.0 | 5.0 | 0.00 | 0.00 | 0.00 | 43 | 1001.9 |
| 20260502161910 | 74 | 298 | 4.0 | 5.0 | 0.00 | 0.00 | 0.00 | 43 | 1001.9 |
| 20260502161710 | 74 | 289 | 4.0 | 5.0 | 0.00 | 0.00 | 0.00 | 43 | 1001.9 |
| 20260502161510 | 74 | 294 | 3.0 | 4.0 | 0.00 | 0.00 | 0.00 | 43 | 1002.0 |
| 20260502161310 | 74 | 291 | 3.0 | 4.0 | 0.00 | 0.00 | 0.00 | 43 | 1002.0 |
| 20260502161110 | 74 | 273 | 3.0 | 4.0 | 0.00 | 0.00 | 0.00 | 43 | 1002.1 |
| 20260502160910 | 74 | 268 | 5.0 | 7.0 | 0.00 | 0.00 | 0.00 | 43 | 1002.2 |
| 20260502160710 | 74 | 268 | 6.0 | 9.0 | 0.00 | 0.00 | 0.00 | 43 | 1002.1 |
| 20260502160510 | 74 | 270 | 6.0 | 9.0 | 0.00 | 0.00 | 0.00 | 43 | 1002.1 |
| 20260502160309 | 74 | 279 | 5.0 | 7.0 | 0.00 | 0.00 | 0.00 | 43 | 1002.1 |
| 20260502160109 | 74 | 279 | 4.0 | 7.0 | 0.00 | 0.00 | 0.00 | 43 | 1002.1 |
| 20260502152308 | 75 | 278 | 6.0 | 8.0 | 0.00 | 0.00 | 0.00 | 44 | 1002.6 |
| 20260502152108 | 75 | 268 | 7.0 | 9.0 | 0.00 | 0.00 | 0.00 | 44 | 1002.5 |
| 20260502151908 | 75 | 266 | 4.0 | 8.0 | 0.00 | 0.00 | 0.00 | 44 | 1002.5 |
| 20260502151708 | 75 | 245 | 3.0 | 4.0 | 0.00 | 0.00 | 0.00 | 44 | 1002.6 |
| 20260502151508 | 75 | 226 | 4.0 | 6.0 | 0.00 | 0.00 | 0.00 | 44 | 1002.8 |
| 20260502151308 | 75 | 225 | 7.0 | 10.0 | 0.00 | 0.00 | 0.00 | 44 | 1002.8 |
| 20260502151108 | 75 | 251 | 8.0 | 10.0 | 0.00 | 0.00 | 0.00 | 44 | 1002.6 |
| 20260502150908 | 75 | 270 | 4.0 | 10.0 | 0.00 | 0.00 | 0.00 | 44 | 1002.6 |
| 20260502150708 | 75 | 314 | 3.0 | 5.0 | 0.00 | 0.00 | 0.00 | 45 | 1002.7 |
| 20260502150508 | 75 | 305 | 4.0 | 5.0 | 0.00 | 0.00 | 0.00 | 44 | 1002.7 |
| 20260502150308 | 75 | 276 | 4.0 | 6.0 | 0.00 | 0.00 | 0.00 | 44 | 1002.7 |
| 20260502150107 | 75 | 261 | 5.0 | 8.0 | 0.00 | 0.00 | 0.00 | 44 | 1002.8 |
| 20260502130658 | 74 | 320 | 5.0 | 9.0 | 0.00 | 0.00 | 0.00 | 48 | 1003.4 |
| 20260502130459 | 74 | 277 | 2.0 | 4.0 | 0.00 | 0.00 | 0.00 | 48 | 1003.7 |
| 20260502130258 | 74 | 264 | 3.0 | 6.0 | 0.00 | 0.00 | 0.00 | 47 | 1003.9 |
| 20260502123657 | 73 | 248 | 1.0 | 4.0 | 0.00 | 0.00 | 0.00 | 49 | 1003.9 |
| 20260502123457 | 73 | 258 | 3.0 | 5.0 | 0.00 | 0.00 | 0.00 | 49 | 1004.1 |
| 20260502123258 | 73 | 269 | 4.0 | 6.0 | 0.00 | 0.00 | 0.00 | 49 | 1004.2 |
| 20260502123057 | 73 | 245 | 6.0 | 8.0 | 0.00 | 0.00 | 0.00 | 49 | 1004.2 |
| 20260502122857 | 73 | 257 | 7.0 | 11.0 | 0.00 | 0.00 | 0.00 | 49 | 1004.2 |
| 20260502122658 | 73 | 273 | 6.0 | 9.0 | 0.00 | 0.00 | 0.00 | 49 | 1004.1 |
| 20260502122457 | 73 | 278 | 5.0 | 8.0 | 0.00 | 0.00 | 0.00 | 49 | 1004.2 |
| 20260502122257 | 73 | 270 | 5.0 | 7.0 | 0.00 | 0.00 | 0.00 | 49 | 1004.3 |
| 20260502122057 | 73 | 284 | 6.0 | 9.0 | 0.00 | 0.00 | 0.00 | 49 | 1004.3 |
| 20260502121857 | 73 | 280 | 7.0 | 10.0 | 0.00 | 0.00 | 0.00 | 49 | 1004.4 |
| 20260502121657 | 73 | 276 | 7.0 | 9.0 | 0.00 | 0.00 | 0.00 | 49 | 1004.5 |
| 20260502121457 | 73 | 253 | 8.0 | 11.0 | 0.00 | 0.00 | 0.00 | 49 | 1004.6 |
| 20260502121257 | 73 | 227 | 10.0 | 13.0 | 0.00 | 0.00 | 0.00 | 49 | 1004.6 |
| 20260502121057 | 73 | 231 | 8.0 | 13.0 | 0.00 | 0.00 | 0.00 | 50 | 1004.6 |
| 20260502120856 | 73 | 232 | 6.0 | 8.0 | 0.00 | 0.00 | 0.00 | 50 | 1004.6 |
| 20260502120656 | 73 | 248 | 8.0 | 12.0 | 0.00 | 0.00 | 0.00 | 50 | 1004.7 |
| 20260502120456 | 73 | 260 | 10.0 | 12.0 | 0.00 | 0.00 | 0.00 | 50 | 1004.7 |
| 20260502120256 | 73 | 255 | 6.0 | 12.0 | 0.00 | 0.00 | 0.00 | 50 | 1004.6 |
| 20260502115856 | 73 | 266 | 4.0 | 10.0 | 0.00 | 0.00 | 0.00 | 50 | 1004.4 |
| 20260502115656 | 73 | 265 | 4.0 | 6.0 | 0.00 | 0.00 | 0.00 | 50 | 1004.5 |
| 20260502115456 | 73 | 278 | 4.0 | 6.0 | 0.00 | 0.00 | 0.00 | 51 | 1004.7 |
| 20260502115256 | 73 | 273 | 6.0 | 9.0 | 0.00 | 0.00 | 0.00 | 50 | 1004.8 |
| 20260502115056 | 73 | 298 | 10.0 | 13.0 | 0.00 | 0.00 | 0.00 | 51 | 1004.6 |
| 20260502114856 | 73 | 338 | 9.0 | 13.0 | 0.00 | 0.00 | 0.00 | 51 | 1004.6 |
| 20260502114656 | 73 | 318 | 4.0 | 8.0 | 0.00 | 0.00 | 0.00 | 51 | 1004.6 |
| 20260502114456 | 73 | 273 | 3.0 | 5.0 | 0.00 | 0.00 | 0.00 | 51 | 1004.7 |
| 20260502114257 | 72 | 278 | 4.0 | 7.0 | 0.00 | 0.00 | 0.00 | 51 | 1004.7 |
| 20260502114056 | 72 | 279 | 6.0 | 9.0 | 0.00 | 0.00 | 0.00 | 51 | 1004.8 |
| 20260502113847 | 72 | 246 | 5.0 | 9.0 | 0.00 | 0.00 | 0.00 | 51 | 1004.8 |
| 20260502113647 | 72 | 233 | 5.0 | 10.0 | 0.00 | 0.00 | 0.00 | 51 | 1004.9 |
| 20260502113447 | 72 | 252 | 6.0 | 9.0 | 0.00 | 0.00 | 0.00 | 52 | 1004.9 |
| 20260502113248 | 72 | 257 | 5.0 | 9.0 | 0.00 | 0.00 | 0.00 | 52 | 1005.0 |
| 20260502113047 | 72 | 262 | 7.0 | 12.0 | 0.00 | 0.00 | 0.00 | 52 | 1005.0 |
| 20260502112847 | 72 | 257 | 10.0 | 13.0 | 0.00 | 0.00 | 0.00 | 52 | 1005.0 |
| 20260502112647 | 72 | 262 | 8.0 | 13.0 | 0.00 | 0.00 | 0.00 | 52 | 1004.9 |
| 20260502112447 | 72 | 280 | 5.0 | 9.0 | 0.00 | 0.00 | 0.00 | 52 | 1004.8 |
| 20260502112247 | 72 | 203 | 5.0 | 8.0 | 0.00 | 0.00 | 0.00 | 52 | 1004.9 |
| 20260502112047 | 72 | 200 | 6.0 | 8.0 | 0.00 | 0.00 | 0.00 | 53 | 1004.8 |
| 20260502111847 | 72 | 209 | 6.0 | 10.0 | 0.00 | 0.00 | 0.00 | 52 | 1004.8 |
| 20260502111647 | 72 | 249 | 5.0 | 7.0 | 0.00 | 0.00 | 0.00 | 53 | 1004.9 |
| 20260502111447 | 71 | 258 | 6.0 | 10.0 | 0.00 | 0.00 | 0.00 | 53 | 1005.1 |
| 20260502111247 | 71 | 237 | 8.0 | 11.0 | 0.00 | 0.00 | 0.00 | 53 | 1005.1 |
| 20260502111047 | 71 | 214 | 8.0 | 11.0 | 0.00 | 0.00 | 0.00 | 53 | 1005.1 |
| 20260502110846 | 71 | 209 | 6.0 | 9.0 | 0.00 | 0.00 | 0.00 | 53 | 1005.2 |
| 20260502110646 | 72 | 213 | 7.0 | 11.0 | 0.00 | 0.00 | 0.00 | 53 | 1005.1 |
| 20260502110447 | 71 | 230 | 8.0 | 11.0 | 0.00 | 0.00 | 0.00 | 53 | 1005.0 |
| 20260502110246 | 71 | 251 | 4.0 | 6.0 | 0.00 | 0.00 | 0.00 | 54 | 1005.0 |
| 20260502110047 | 71 | 250 | 6.0 | 10.0 | 0.00 | 0.00 | 0.00 | 53 | 1005.0 |
| 20260502105846 | 71 | 250 | 4.0 | 9.0 | 0.00 | 0.00 | 0.00 | 53 | 1005.0 |
| 20260502105647 | 71 | 248 | 6.0 | 10.0 | 0.00 | 0.00 | 0.00 | 53 | 1005.0 |
| 20260502105446 | 71 | 302 | 7.0 | 10.0 | 0.00 | 0.00 | 0.00 | 54 | 1005.1 |
| 20260502105246 | 71 | 269 | 5.0 | 9.0 | 0.00 | 0.00 | 0.00 | 54 | 1005.1 |
| 20260502105046 | 71 | 243 | 6.0 | 10.0 | 0.00 | 0.00 | 0.00 | 54 | 1005.1 |
| 20260502104846 | 71 | 260 | 5.0 | 10.0 | 0.00 | 0.00 | 0.00 | 54 | 1005.2 |
| 20260502104646 | 71 | 240 | 7.0 | 10.0 | 0.00 | 0.00 | 0.00 | 54 | 1005.2 |
| 20260502104446 | 71 | 262 | 7.0 | 9.0 | 0.00 | 0.00 | 0.00 | 54 | 1005.3 |
| 20260502104246 | 71 | 253 | 8.0 | 10.0 | 0.00 | 0.00 | 0.00 | 54 | 1005.2 |
| 20260502104045 | 71 | 250 | 7.0 | 11.0 | 0.00 | 0.00 | 0.00 | 54 | 1005.2 |
| 20260502103845 | 71 | 257 | 5.0 | 11.0 | 0.00 | 0.00 | 0.00 | 54 | 1005.3 |
| 20260502103645 | 71 | 270 | 5.0 | 10.0 | 0.00 | 0.00 | 0.00 | 55 | 1005.3 |
| 20260502103445 | 70 | 245 | 8.0 | 10.0 | 0.00 | 0.00 | 0.00 | 55 | 1005.4 |
| 20260502103245 | 70 | 239 | 8.0 | 10.0 | 0.00 | 0.00 | 0.00 | 55 | 1005.4 |
| 20260502103045 | 70 | 242 | 8.0 | 10.0 | 0.00 | 0.00 | 0.00 | 55 | 1005.4 |
| 20260502102845 | 70 | 236 | 8.0 | 11.0 | 0.00 | 0.00 | 0.00 | 55 | 1005.4 |
| 20260502102645 | 70 | 234 | 5.0 | 10.0 | 0.00 | 0.00 | 0.00 | 55 | 1005.5 |
| 20260502102445 | 70 | 237 | 9.0 | 12.0 | 0.00 | 0.00 | 0.00 | 55 | 1005.5 |
| 20260502102245 | 70 | 234 | 9.0 | 12.0 | 0.00 | 0.00 | 0.00 | 55 | 1005.5 |
| 20260502102045 | 70 | 240 | 8.0 | 11.0 | 0.00 | 0.00 | 0.00 | 55 | 1005.5 |
| 20260502101845 | 70 | 253 | 7.0 | 9.0 | 0.00 | 0.00 | 0.00 | 55 | 1005.5 |
| 20260502101645 | 70 | 256 | 6.0 | 9.0 | 0.00 | 0.00 | 0.00 | 56 | 1005.5 |
| 20260502101445 | 70 | 247 | 7.0 | 12.0 | 0.00 | 0.00 | 0.00 | 55 | 1005.6 |
| 20260502101245 | 70 | 256 | 9.0 | 12.0 | 0.00 | 0.00 | 0.00 | 56 | 1005.6 |
| 20260502101045 | 70 | 265 | 8.0 | 11.0 | 0.00 | 0.00 | 0.00 | 56 | 1005.5 |
| 20260502100844 | 69 | 267 | 8.0 | 11.0 | 0.00 | 0.00 | 0.00 | 56 | 1005.5 |
| 20260502100644 | 69 | 260 | 7.0 | 11.0 | 0.00 | 0.00 | 0.00 | 56 | 1005.5 |
| 20260502100444 | 69 | 250 | 6.0 | 8.0 | 0.00 | 0.00 | 0.00 | 56 | 1005.6 |
| 20260502100244 | 69 | 240 | 7.0 | 10.0 | 0.00 | 0.00 | 0.00 | 56 | 1005.7 |
| 20260502091443 | 67 | 218 | 10.0 | 13.0 | 0.00 | 0.00 | 0.00 | 59 | 1006.0 |
| 20260502091243 | 67 | 220 | 11.0 | 15.0 | 0.00 | 0.00 | 0.00 | 59 | 1006.0 |
| 20260502091043 | 67 | 217 | 11.0 | 15.0 | 0.00 | 0.00 | 0.00 | 59 | 1005.9 |
| 20260502090843 | 67 | 228 | 10.0 | 13.0 | 0.00 | 0.00 | 0.00 | 60 | 1005.9 |
| 20260502090642 | 67 | 221 | 9.0 | 13.0 | 0.00 | 0.00 | 0.00 | 60 | 1006.0 |
| 20260502090234 | 66 | 218 | 8.0 | 12.0 | 0.00 | 0.00 | 0.00 | 60 | 1006.0 |
| 20260502071430 | 60 | 203 | 8.0 | 11.0 | 0.00 | 0.00 | 0.00 | 67 | 1006.6 |
| 20260502071230 | 60 | 203 | 8.0 | 10.0 | 0.00 | 0.00 | 0.00 | 68 | 1006.7 |
| 20260502071030 | 59 | 210 | 7.0 | 8.0 | 0.00 | 0.00 | 0.00 | 68 | 1006.7 |
| 20260502070830 | 59 | 210 | 8.0 | 9.0 | 0.00 | 0.00 | 0.00 | 68 | 1006.7 |
| 20260502070630 | 59 | 206 | 8.0 | 9.0 | 0.00 | 0.00 | 0.00 | 68 | 1006.7 |
| 20260502070430 | 59 | 205 | 7.0 | 9.0 | 0.00 | 0.00 | 0.00 | 68 | 1006.7 |
| 20260502070230 | 59 | 208 | 7.0 | 9.0 | 0.00 | 0.00 | 0.00 | 68 | 1006.7 |
| 20260502070030 | 58 | 207 | 7.0 | 10.0 | 0.00 | 0.00 | 0.00 | 68 | 1006.7 |
| 20260502065830 | 58 | 204 | 7.0 | 10.0 | 0.00 | 0.00 | 0.00 | 68 | 1006.7 |
| 20260502065630 | 58 | 209 | 6.0 | 8.0 | 0.00 | 0.00 | 0.00 | 69 | 1006.7 |
| 20260502065430 | 58 | 215 | 6.0 | 8.0 | 0.00 | 0.00 | 0.00 | 69 | 1006.8 |
| 20260502065230 | 58 | 213 | 7.0 | 10.0 | 0.00 | 0.00 | 0.00 | 69 | 1006.8 |
| 20260502065030 | 57 | 220 | 6.0 | 10.0 | 0.00 | 0.00 | 0.00 | 69 | 1006.8 |
| 20260502064830 | 57 | 217 | 6.0 | 8.0 | 0.00 | 0.00 | 0.00 | 69 | 1006.9 |
| 20260502064630 | 57 | 215 | 8.0 | 11.0 | 0.00 | 0.00 | 0.00 | 69 | 1006.9 |
| 20260502064429 | 57 | 216 | 8.0 | 11.0 | 0.00 | 0.00 | 0.00 | 69 | 1006.9 |
| 20260502064229 | 57 | 215 | 8.0 | 9.0 | 0.00 | 0.00 | 0.00 | 69 | 1006.9 |
| 20260502064029 | 57 | 213 | 7.0 | 9.0 | 0.00 | 0.00 | 0.00 | 70 | 1006.9 |
| 20260502063829 | 56 | 208 | 7.0 | 8.0 | 0.00 | 0.00 | 0.00 | 70 | 1006.9 |
| 20260502063629 | 56 | 210 | 7.0 | 9.0 | 0.00 | 0.00 | 0.00 | 70 | 1006.9 |
| 20260502063429 | 56 | 211 | 7.0 | 9.0 | 0.00 | 0.00 | 0.00 | 70 | 1006.9 |
| 20260502063229 | 56 | 215 | 7.0 | 9.0 | 0.00 | 0.00 | 0.00 | 70 | 1006.9 |
| 20260502063028 | 55 | 214 | 6.0 | 9.0 | 0.00 | 0.00 | 0.00 | 70 | 1007.0 |
| 20260502062821 | 55 | 219 | 6.0 | 8.0 | 0.00 | 0.00 | 0.00 | 70 | 1007.0 |
| 20260502062620 | 55 | 219 | 8.0 | 9.0 | 0.00 | 0.00 | 0.00 | 70 | 1007.1 |
| 20260502062421 | 55 | 213 | 8.0 | 9.0 | 0.00 | 0.00 | 0.00 | 71 | 1007.0 |
| 20260502062220 | 55 | 207 | 7.0 | 9.0 | 0.00 | 0.00 | 0.00 | 71 | 1007.0 |
| 20260502062021 | 55 | 209 | 7.0 | 9.0 | 0.00 | 0.00 | 0.00 | 71 | 1007.0 |
| 20260502061820 | 55 | 214 | 6.0 | 8.0 | 0.00 | 0.00 | 0.00 | 71 | 1007.0 |
| 20260502061621 | 54 | 221 | 6.0 | 8.0 | 0.00 | 0.00 | 0.00 | 71 | 1007.0 |
| 20260502061420 | 54 | 214 | 6.0 | 8.0 | 0.00 | 0.00 | 0.00 | 71 | 1007.0 |
| 20260502061219 | 54 | 212 | 7.0 | 9.0 | 0.00 | 0.00 | 0.00 | 72 | 1007.1 |
| 20260502061019 | 54 | 213 | 7.0 | 8.0 | 0.00 | 0.00 | 0.00 | 72 | 1007.1 |
| 20260502060819 | 54 | 219 | 7.0 | 8.0 | 0.00 | 0.00 | 0.00 | 72 | 1007.1 |
| 20260502060619 | 53 | 218 | 7.0 | 9.0 | 0.00 | 0.00 | 0.00 | 72 | 1007.1 |
| 20260502060419 | 53 | 215 | 8.0 | 9.0 | 0.00 | 0.00 | 0.00 | 72 | 1007.1 |
| 20260502060220 | 53 | 215 | 8.0 | 9.0 | 0.00 | 0.00 | 0.00 | 72 | 1007.1 |
| 20260502060019 | 53 | 220 | 7.0 | 9.0 | 0.00 | 0.00 | 0.00 | 72 | 1007.1 |
| 20260502055819 | 53 | 213 | 6.0 | 9.0 | 0.00 | 0.00 | 0.00 | 73 | 1007.1 |
| 20260502055619 | 52 | 212 | 7.0 | 9.0 | 0.00 | 0.00 | 0.00 | 73 | 1007.1 |
| 20260502055419 | 52 | 211 | 6.0 | 8.0 | 0.00 | 0.00 | 0.00 | 73 | 1007.1 |
| 20260502055219 | 52 | 217 | 6.0 | 8.0 | 0.00 | 0.00 | 0.00 | 73 | 1007.1 |
| 20260502055019 | 52 | 220 | 6.0 | 8.0 | 0.00 | 0.00 | 0.00 | 73 | 1007.1 |
| 20260502054819 | 52 | 217 | 7.0 | 10.0 | 0.00 | 0.00 | 0.00 | 73 | 1007.1 |
| 20260502054619 | 52 | 213 | 7.0 | 10.0 | 0.00 | 0.00 | 0.00 | 73 | 1007.1 |
| 20260502054419 | 51 | 220 | 6.0 | 8.0 | 0.00 | 0.00 | 0.00 | 74 | 1007.1 |
| 20260502054218 | 51 | 224 | 6.0 | 7.0 | 0.00 | 0.00 | 0.00 | 73 | 1007.1 |
| 20260502054018 | 51 | 225 | 6.0 | 7.0 | 0.00 | 0.00 | 0.00 | 74 | 1007.1 |
| 20260502053819 | 51 | 222 | 6.0 | 7.0 | 0.00 | 0.00 | 0.00 | 74 | 1007.1 |
| 20260502053618 | 51 | 223 | 5.0 | 7.0 | 0.00 | 0.00 | 0.00 | 74 | 1007.1 |